Total_Precipitation_Accumulation
0.43 0.49 0.68 0.66 0.51 0.46 0.46 0.46 0.49 0.44 0.39 0.41 0.42 0.40 0.34 0.30 0.27 0.26 0.28 0.29 0.32 0.39 0.47 0.53 0.57 0.59 0.66 0.72 0.80 0.82 0.86 0.93 1.10 1.35 1.55 1.58 1.58 1.62 1.82 1.92 1.89 1.48 1.39
0.20 0.32 0.54 0.57 0.46 0.44 0.43 0.42 0.43 0.39 0.38 0.36 0.40 0.43 0.41 0.39 0.32 0.31 0.33 0.35 0.40 0.45 0.45 0.45 0.52 0.51 0.57 0.63 0.71 0.75 0.85 0.98 1.40 1.76 1.93 1.84 1.80 1.83 1.93 1.89 1.86 1.47 1.30
0.12 0.16 0.29 0.45 0.43 0.40 0.38 0.38 0.39 0.36 0.36 0.32 0.33 0.37 0.38 0.39 0.33 0.31 0.36 0.40 0.46 0.48 0.44 0.49 0.54 0.52 0.55 0.61 0.68 0.71 0.86 1.16 1.72 2.30 2.48 2.08 1.70 1.88 1.94 1.88 1.68 1.31 1.11
0.10 0.12 0.16 0.31 0.36 0.35 0.33 0.33 0.34 0.32 0.28 0.26 0.27 0.31 0.35 0.38 0.35 0.33 0.36 0.40 0.46 0.45 0.46 0.53 0.52 0.55 0.52 0.55 0.65 0.82 1.04 1.26 1.73 2.21 2.35 1.73 1.37 1.40 1.59 1.46 1.30 1.12 0.90
0.15 0.13 0.18 0.25 0.26 0.29 0.30 0.31 0.33 0.32 0.29 0.25 0.25 0.29 0.33 0.36 0.36 0.35 0.42 0.44 0.48 0.50 0.49 0.49 0.51 0.57 0.55 0.54 0.67 0.90 1.17 1.43 1.71 1.99 1.72 1.93 1.83 1.45 1.32 1.19 1.15 0.94 0.72
0.16 0.13 0.18 0.24 0.21 0.22 0.24 0.27 0.31 0.30 0.28 0.27 0.28 0.30 0.32 0.36 0.38 0.38 0.39 0.43 0.51 0.55 0.56 0.57 0.56 0.57 0.57 0.56 0.66 0.93 1.20 1.55 1.72 1.29 1.04 1.40 1.40 1.30 1.21 1.16 1.05 0.87 0.70
0.20 0.15 0.18 0.27 0.24 0.22 0.24 0.28 0.30 0.27 0.26 0.26 0.28 0.31 0.35 0.37 0.39 0.41 0.43 0.46 0.51 0.55 0.54 0.57 0.56 0.55 0.59 0.62 0.67 0.89 1.26 1.59 1.51 1.00 0.85 1.11 1.05 1.08 1.17 1.17 1.09 0.90 0.71
0.29 0.21 0.23 0.32 0.33 0.30 0.30 0.33 0.32 0.27 0.26 0.27 0.29 0.33 0.37 0.39 0.41 0.46 0.50 0.54 0.50 0.54 0.53 0.50 0.51 0.50 0.50 0.64 0.77 0.88 1.16 1.29 1.04 0.87 0.80 0.89 0.75 1.01 1.16 1.07 1.00 0.89 0.78
0.57 0.46 0.37 0.37 0.36 0.36 0.40 0.41 0.38 0.33 0.32 0.32 0.35 0.35 0.36 0.37 0.42 0.47 0.57 0.60 0.53 0.55 0.56 0.53 0.52 0.57 0.59 0.67 0.78 0.94 1.17 1.33 1.16 1.05 0.83 0.80 0.71 1.03 1.27 1.08 0.91 0.79 0.79
1.17 0.96 0.71 0.50 0.51 0.45 0.42 0.45 0.45 0.38 0.37 0.36 0.37 0.36 0.43 0.51 0.56 0.64 0.66 0.62 0.62 0.67 0.70 0.68 0.66 0.70 0.78 0.83 0.93 1.07 1.23 1.19 1.13 1.31 1.08 0.76 0.81 1.13 1.35 1.37 1.16 0.96 0.89
1.52 1.34 1.19 0.95 0.71 0.70 0.63 0.53 0.63 0.59 0.56 0.61 0.69 0.66 0.80 1.08 1.04 1.12 0.94 0.85 0.90 1.00 1.08 1.08 1.09 1.11 1.09 1.02 1.14 1.33 1.26 1.19 1.41 1.59 1.28 0.94 1.05 1.44 1.59 1.66 1.51 1.36 1.24
1.55 1.38 1.38 1.32 1.02 0.90 0.83 0.99 1.26 1.14 1.14 1.19 1.39 1.25 1.49 1.63 1.47 1.03 1.07 1.17 1.31 1.58 1.70 1.75 1.81 1.72 1.55 1.38 1.51 1.55 1.35 1.38 1.52 1.37 1.18 1.08 1.21 1.58 1.85 1.92 1.76 1.54 1.46
1.78 1.66 1.39 1.50 1.33 1.26 1.33 1.38 1.52 1.61 1.61 1.59 1.67 1.68 1.88 1.74 1.45 1.30 1.53 1.82 1.99 2.14 2.33 2.42 2.41 2.10 2.09 2.21 2.22 2.00 1.87 1.74 1.76 1.47 1.12 1.24 1.39 1.69 1.96 2.04 1.89 1.75 1.60
2.08 1.96 1.84 1.83 1.80 1.74 1.71 1.61 1.49 1.34 1.37 1.52 1.66 1.70 1.88 1.95 1.94 1.93 2.02 2.12 2.28 2.55 2.94 2.92 2.93 2.78 2.83 2.68 2.49 2.45 2.28 1.98 2.08 2.07 1.58 1.48 1.60 1.91 2.09 2.11 1.99 1.88 1.85
2.79 2.62 2.61 2.68 2.46 2.19 2.02 1.69 1.37 1.25 1.14 1.24 1.37 1.47 1.53 1.78 2.00 2.03 1.88 1.91 1.90 2.11 2.53 2.98 2.99 3.20 3.24 2.94 2.52 2.35 2.41 2.27 2.20 2.10 1.72 1.79 1.98 2.04 2.03 2.01 2.00 1.94 1.95
3.79 3.59 3.39 3.44 2.96 2.55 2.24 1.82 1.55 1.31 1.26 1.19 1.14 1.18 1.39 1.58 1.80 1.76 1.74 1.87 1.92 1.90 2.06 2.45 2.69 3.01 3.04 2.73 2.29 2.14 2.13 2.17 2.04 2.01 1.75 1.77 1.88 1.76 1.79 1.99 2.18 2.22 2.15
4.90 4.50 3.89 3.61 3.27 2.93 2.61 2.10 1.68 1.45 1.23 1.19 1.12 1.10 1.17 1.31 1.49 1.49 1.58 1.55 1.60 1.60 1.64 1.79 2.04 2.31 2.33 2.25 2.19 2.17 2.11 2.02 1.84 1.81 1.85 1.78 1.57 1.61 1.68 1.80 1.97 2.08 2.25
5.70 5.10 4.35 3.65 3.65 3.44 3.06 2.39 1.86 1.54 1.35 1.20 1.10 1.01 0.95 0.99 0.98 1.07 1.13 1.12 1.10 1.03 1.12 1.35 1.46 1.66 1.91 2.07 2.18 2.10 2.06 2.09 1.89 1.82 1.78 1.75 1.72 1.49 1.68 1.75 1.74 1.80 2.05
5.87 5.66 5.00 4.79 4.53 3.85 3.06 2.40 1.92 1.62 1.45 1.27 1.16 1.05 0.97 0.85 0.80 0.87 0.96 1.02 0.82 0.80 0.84 0.82 1.11 1.31 1.54 1.68 1.54 1.69 1.65 1.69 1.62 1.44 1.45 1.34 1.50 1.47 1.54 1.56 1.61 1.59 1.80
4.82 4.72 4.64 4.72 4.22 3.60 2.95 2.40 2.03 1.74 1.45 1.24 1.14 1.12 1.04 0.94 0.85 0.92 0.83 0.79 0.68 0.79 0.91 1.00 1.23 1.21 1.20 1.29 1.17 1.40 1.34 1.24 1.25 1.19 1.08 1.13 1.17 1.06 1.18 1.32 1.37 1.22 1.50
3.25 3.34 3.63 3.84 3.54 3.04 2.60 2.07 1.81 1.67 1.44 1.26 1.13 1.01 1.01 0.93 0.97 0.99 0.83 0.97 0.84 0.84 0.88 0.90 1.03 1.06 0.98 0.94 1.27 1.49 1.26 0.98 0.95 0.85 0.83 0.96 1.02 1.03 1.19 1.33 1.33 1.33 1.23
2.33 2.64 3.01 3.24 3.08 2.54 2.27 2.02 1.84 1.71 1.53 1.45 1.33 1.15 0.99 0.92 0.91 0.81 0.95 0.85 0.86 0.95 0.95 0.96 1.04 1.07 0.95 0.89 1.19 1.50 1.36 1.39 1.28 0.70 0.78 0.88 0.93 1.08 1.13 1.12 1.21 1.37 1.22
2.05 2.19 2.25 2.50 2.69 2.42 2.27 2.18 2.05 1.90 1.65 1.60 1.51 1.30 0.99 0.86 0.85 0.86 0.84 0.83 0.99 0.82 0.99 1.12 1.08 1.08 1.06 0.95 0.96 1.19 1.24 1.28 1.18 0.98 0.81 0.75 0.83 1.04 1.08 1.12 1.08 1.21 1.28
1.43 1.71 1.95 2.19 2.35 2.28 2.15 1.94 1.77 1.56 1.41 1.36 1.35 1.34 1.19 1.04 0.90 0.89 0.84 0.90 0.99 0.86 1.12 0.89 0.92 1.07 1.10 0.95 0.89 0.77 0.78 0.95 1.09 1.14 0.99 0.78 0.79 0.87 0.91 0.87 0.91 1.09 1.16
0.98 1.37 1.79 2.11 2.33 2.21 1.91 1.73 1.71 1.61 1.53 1.45 1.36 1.44 1.30 1.20 1.04 0.90 0.91 0.96 0.93 0.87 0.96 0.99 1.18 1.07 1.03 0.98 0.91 0.83 0.85 0.82 0.72 0.86 1.01 1.01 0.96 0.73 0.65 0.72 0.83 0.98 1.02
0.79 1.02 1.30 1.62 1.88 1.91 1.74 1.64 1.66 1.67 1.64 1.50 1.30 1.25 1.14 1.10 1.08 1.03 1.06 1.05 0.96 0.89 0.92 0.95 1.06 1.07 1.13 1.17 1.01 0.86 0.88 0.81 0.73 0.81 0.78 0.79 0.87 0.70 0.61 0.63 0.71 0.81 0.88